sat.trackr.live / text

‹ back to catalog

STARLINK-6048

NORAD 56459 · 2023-064M

PAYLOAD ACTIVE UNKNOWN

§ Identity

Operator
Country
US
Launch date
2023-05-10
Launch site
AFWTR
Launch vehicle
Mass (kg)
RCS (m²)

Purposes: comms

External: N2YO · Heavens-Above · Gunter

§ Orbital elements

Epoch: 2026-05-25T03:48:40.403808Z

Period
96.11 min
Inclination
69.9995°
Eccentricity
0.0002946
Mean motion
14.98332011 rev/d
Perigee alt
570.0 km
Apogee alt
574.1 km
Semi-major
6,950.2 km
B*
4.2107e-5
RAAN
311.5170°
Arg perigee
264.7887°
Mean anomaly
95.2936°
Rev number
16,669

§ Raw data

STARLINK-60481 56459U 23064M   26145.15880097  .00000409  00000+0  42107-4 0  99902 56459  69.9995 311.5170 0002946 264.7887  95.2936 14.98332011166693

JSON: /api/v1/satellites/56459 · /tle

For live sub-satellite position, see the globe view (requires WebGL).

§ Visibility from observer

Set your observer location to see the next 7 days of passes ≥ 10°. The values pass through the URL so the page stays shareable.

No JS? Fill the form by hand. The geolocation button needs JavaScript.